Location: Santa Maria di Sala
(45.5070°N, 12.0300°E)
Time: 07:24:41
(UTC+02:00)

STRAND 1 - Pass Details

Date: 04 March 2024
Orbit: 764 x 779 km, 98.4° (Epoch: 16 April)

Event Time Altitude Azimuth Distance (km) Brightness Sun altitude
Rises 05:56:18 0° 172° (S) 3,249 ? -9.2°
Reaches altitude 10° 05:58:37 10° 174° (S) 2,326 ? -8.8°
Maximum altitude 06:03:44 68° 258° (WSW) 839 ? -7.9°
Drops below altitude 10° 06:08:53 10° 341° (NNW) 2,340 ? -7.0°
Sets 06:11:13 0° 344° (NNW) 3,271 ? -6.6°
